Regional Weather Roundup
Issued by NWS Charleston, SC

Current Version | Previous Version | Graphics & Text | Print | Product List | Glossary On
Versions: 1 2 3 4 5 6 7 8 9 10 11 12 13 14 15 16 17 18 19 20 21 22 23 24 25 26 27 28 29 30 31 32 33 34 35 36 37 38 39 40 41 42 43 44 45 46 47 48 49 50
000 ASUS42 KCHS 250812 RWRCHS REGIONAL WEATHER ROUNDUP NATIONAL WEATHER SERVICE CHARLESTON SC 400 AM EDT SUN JUN 25 2017 NOTE: "FAIR" INDICATES FEW OR NO CLOUDS BELOW 12,000 FEET WITH NO SIGNIFICANT WEATHER AND/OR OBSTRUCTIONS TO VISIBILITY. NOT ALL STATIONS ARE QUALITY CONTROLLED. USE DATA WITH CAUTION... ESPECIALLY DEWPOINT OBSERVATIONS. SCZ027-030-031-034>040-042>050-250900- ...SOUTHEAST SOUTH CAROLINA... CITY SKY/WX TMP DP RH WIND PRES REMARKS N CHARLESTON CLOUDY 77 74 90 SW7 30.02F WATERFRONT PRK N/A 78 76 94 SW7 30.01F JOHNS ISLAND FAIR 77 77 100 S7 30.03F PINOPOLIS N/A 77 75 94 W7 29.96S MONCKS CORNER FAIR 73 72 94 CALM 30.02F SUMMERVILLE FAIR 75 72 88 CALM 30.03F BEAUFORT MCAS PTCLDY 77 76 96 CALM 30.03F BEAUFORT ARPT FAIR 73 73 100 CALM 30.03F HILTON HEAD IS CLEAR 79 75 89 CALM 30.05S WALTERBORO CLOUDY 75 72 88 CALM 30.04F ALLENDALE FAIR 75 73 94 N5 30.03S ...SOUTHERN MIDLANDS AND PEE DEE... CITY SKY/WX TMP DP RH WIND PRES REMARKS GEORGETOWN FAIR 75 75 100 SW7 30.03F KINGSTREE FAIR 73 72 94 CALM 30.03S ORANGEBURG CLOUDY 75 74 96 SW3 30.05S BARNWELL FAIR 77 75 94 CALM 30.05S AIKEN FAIR 70 68 94 CALM 30.08F MANNING PTSUNNY 73 73 100 W5 30.04S COLUMBIA CLOUDY 74 70 87 CALM 30.03S SUMTER CLOUDY 74 72 93 W3 30.01F FLORENCE CLOUDY 75 74 96 SW5 30.03R MYRTLE BEACH NOT AVBL N MYRTLE BEACH MOCLDY 77 74 90 SW9 30.01F $$ GAZ063-065-086>088-099>101-113>116-118-119-134>141-150-250900- ...SOUTHEAST GEORGIA... CITY SKY/WX TMP DP RH WIND PRES REMARKS SAVANNAH ARPT CLEAR 77 73 87 CALM 30.04F HUNTER AAF CLEAR 77 75 93 CALM 30.01F FORT STEWART CLEAR 76 73 91 CALM 30.03S STATESBORO MOCLDY 76 32 20 CALM 30.05S SYLVANIA CLOUDY 75 75 100 SW3 30.05F CLAXTON FAIR 74 74 98 CALM 30.05S ...CSRA...CENTRAL AND FAR SOUTHEAST GEORGIA... CITY SKY/WX TMP DP RH WIND PRES REMARKS THOMSON CLOUDY 70 69 97 CALM 30.10S AUGUSTA-BUSH CLOUDY 74 72 93 S5 30.04S AUGUSTA-DANIEL LGT RAIN 74 67 78 SW3 30.06S SWAINSBORO HVY RAIN 73 73 100 SW3 30.07S VIDALIA NOT AVBL EASTMAN PTSUNNY 77 77 100 SE3 30.07S HAZLEHURST N/A 78 78 100 NE5 30.04F ALMA CLEAR 75 73 93 CALM 30.04F WAYCROSS PTCLDY 77 77 100 CALM 30.05S JESUP FAIR 73 70 88 CALM 30.05S BAXLEY FAIR 75 75 100 CALM 30.05S BRUNSWICK CLOUDY 77 73 88 CALM 30.06S SAINT SIMONS CLOUDY 79 74 84 W7 30.04F $$ SCZ027-028-034-036>038-045-046-048>050-GAZ119-141-250900- ...LAKE AND SUPPLEMENTAL COASTAL OBSERVATIONS... STATION/POSITION TIME TEMP WIND PRES WAVE SWELL AIR SEA DIR/SP/G HT/PER HT/PER/DIR (UTC) (F) (DEG/KT/KT) (MB) (FT/S) (FT/S/D) WINYAH BAY 0645 77 240/ 2 1017.0 LAKE MURRAY 0720 73 CALM / 5 1016.3 ACE BASIN NERRS 0645 77 CALM 1018.0 FORT PULASKI 0748 80 84 330/ 2/ 2 1017.5F SAPELO ISLAND 0700 81 240/ 5 1018.0 $$ ANZ835-935-AMZ111-154-330-350-352-354-370-450-454-472-250900- ...C-MAN AND BUOY OBSERVATIONS... STATION/POSITION TIME TEMP WIND PRES WAVE SWELL AIR SEA DIR/SP/G HT/PER HT/PER/DIR (UTC) (F) (DEG/KT/KT) (MB) (FT/S) (FT/S/D) BUOY 41004 0750 81 80 230/ 14/ 17 1017.1R 4/ 5 2/140/ 8 BUOY 41008 0650 81 82 200/ 14/ 16 1017.2 3/ 5 2/ 90/ 8 FOLLY BEACH CMAN 0700 77 230/ 13/ 17 1018.2S CAPERS NEARSHORE 0708 84 83 250/ 16/ 19 1016.9F FRIPP NEARSHORE 0708 83 84 230/ 14/ 17 1017.3R STATION/POSITION TIME TEMP WIND PRES WAVE SWELL AIR SEA DIR/SP/G HT/PER HT/PER/DIR (UTC) (F) (DEG/KT/KT) (MB) (FT/S) (FT/S/D) 5E ST. MARYS GA 0730 80 N/A 3/ 5 FRYING PAN BUOY 0750 80 80 230/ 14/ 17 1016.8R 5/ 6 2/130/ 8 BUOY 41025 0750 78 80 240/ 21/ 27 1015.0R 5/ 7 2/130/ 9 CAPE LOOKOUT NC 0700 77 240/ 9/ 13 1015.7S BUOY 41002 0650 80 80 200/ 14/ 16 1019.2 4/ 6 2/100/ 8 BUOY 41010 0750 82 83 170/ 12/ 14 1019.0S 4/ 7 2/120/ 7 ST AUGUSTINE FL 0800 77 77 170/ 4/ 5 1018.6S $$

USA.gov is the U.S. government's official web portal to all federal, state and local government web resources and services.